Location: Coopersdale
(40.3556°N, 78.9372°W)
Time: 03:23:54
(UTC+00:00)

Tiros 1 despin weight - Pass Details

Date: 26 January 2021
Orbit: 593 x 642 km, 48.2° (Epoch: 02 March)

Event Time Altitude Azimuth Distance (km) Brightness Sun altitude
Rises 22:17:07 0° 295° (WNW) 2,873 ? 0.9°
Reaches altitude 10° 22:19:37 10° 305° (NW) 1,959 ? 0.5°
Maximum altitude 22:23:42 33° 11° (N) 1,017 ? -0.2°
Drops below altitude 10° 22:27:44 10° 76° (ENE) 1,933 ? -0.9°
Enters shadow 22:30:10 - 86° (E) 2,826 ? -1.3°
Sets 22:30:11 0° 86° (E) 2,829 - -1.3°
